THOR BURNER 2 R/B, 2422

Orbit data source: Space-Track

THOR BURNER 2 R/B, 2422 is space debris in SSO originally from a launch on Fri, 16 Sep 1966 UTC launched from the Air Force Western Test Range (AFWTR). Debris objects in space refer to the collection of defunct objects orbiting the Earth. Examples of debris include non-operational satellites, rocket bodies, and fragments generated from explosions, collisions, or faulty payload assembly.

Loading next visibility...
Identifier
2422, 1966-082B
Orbit
SSO
Country
Flag of USUS
Related business
Manufacturer
Thiokol/TE
Mission
Spacecraft
Bus & Motor
STAR 37, Unknown motor
Mass
136 kg wet, 136 kg dry
Launch date (UTC)
1966-09-16 (59 years ago)
Launch vehicle
Unknown
Launch site
Air Force Western Test Range (AFWTR)
Object type
Payload
Rocket body
Debris
Shape & HBR
Unknown
Radar Cross Section
Large (>1 m²)

Expand to show TLE details & history
Last TLE update: 9 hours ago

TLE from 9 hours ago
0 THOR BURNER 2 R/B
1 02422U 66082B   25352.19181421  .00000277  00000-0  83227-4 0  9998
2 02422  98.2175 147.0029 0111121  39.8250 321.1032 14.46576769 89106
Epoch: 2025-12-18T04:36Z
TLE epoch observation values (Epoch: 2025-12-18T04:36:12.747Z)
Latitude
0.00001°
Longitude
-9.10107°
Altitude
678.623 km
Speed
7.55 km/s
True Right ascension
09h 48m 00s
True Declination
0° 00' 00"
Sunlit
Object was in full shadow at epoch
Visualization orbit readout
Latitude
Unknown
Longitude
Unknown
Altitude
Unknown
Speed
Unknown
Apparent Right ascension
Unknown
Apparent Declination
Unknown
Sunlit
N/A
Visualization observer readout
Local Sidereal Time
12:06:00
Azimuth
Unknown
Elevation
Unknown
Doppler factor
Unknown
Orbital elements
Apogee altitude
812.981 km
Perigee altitude
654.92 km
Semi-major axis
7,112.088 km
Eccentricity
0.01111
Inclination
98.2175°
RAAN
147.0029°
Arg. of periapsis
39.825°
True anomaly
320.29493°
Mean anomaly
321.1032°
Eccentric anomaly
320.69994°
Mean motion
3.61866 °/min
Orbital period
99.48 mins
BSTAR
0.000083227
Loading maneuver chart data...
Computing Atmospheric mass density...
Loading historical data...
Loading historical data...
Loading historical data...
Loading historical data...
Loading historical data...
Loading historical data...
Loading historical data...
Other satellites on launch #82 in the year 1966 (1966-09-16 UTC)

Documentation

Showing up to 5 results
|